Retour au catalogue

CZ-4 DEB

ActifSSO
NORAD 26336·DEBRIS·🇨🇳 China

Lancé Oct 14, 1999 depuis Taiyuan Satellite Launch Center

Loading…

Prochains Passages (prochaines 24 heures)

TLE

FraisSource: Space-Track

Époque: Sep 14, 2026, 10:12 UTC

1 26336U 99057HV  26257.42565499  .00003463  00000-0  49537-3 0  9993
2 26336  98.3371 324.2139 0046560 260.4427  99.1518 14.76602747398921

Suivez CZ-4 DEB en temps réel avec AllMySat

Download on the App Store